KB6CYS Weather Reports


Display with metric or nautical units.
time (UTC)temp
F
wind
direction
speed
MPH
gust
MPH
rain 1hr
in
rain 24hr
in
rain mn
in
humidity
%
barometer
mb
20260904073503 66 293 0.0 1.0 0.00 0.00 0.00 1012.2
20260904073004 66 45 0.0 1.0 0.00 0.00 0.00 1012.6
20260904072503 66 81 0.0 1.0 0.00 0.00 0.00 1012.2
20260904072002 67 68 0.0 2.0 0.00 0.00 0.00 1012.6
20260904071503 67 68 1.0 2.0 0.00 0.00 0.00 1012.9
20260904071003 67 68 1.0 2.0 0.00 0.00 0.00 1012.9
20260904070503 67 73 1.0 2.0 0.00 0.00 0.00 1012.6
20260904070025 67 89 1.0 2.0 0.00 0.00 0.00 1012.6
20260904065502 67 86 1.0 2.0 0.00 0.00 0.00 1012.2
20260904065004 67 90 1.0 2.0 0.00 0.00 0.00 1012.6
20260904064503 67 89 1.0 2.0 0.00 0.00 0.00 1012.6
20260904064002 67 338 0.0 1.0 0.00 0.00 0.00 1012.2
20260904063524 67 293 0.0 1.0 0.00 0.00 0.00 1012.2
20260904063003 67 314 0.0 1.0 0.00 0.00 0.00 1012.2
20260904062523 67 328 1.0 1.0 0.00 0.00 0.00 1012.2
20260904062002 68 293 0.0 2.0 0.00 0.00 0.00 1012.6
20260904061523 68 314 0.0 2.0 0.00 0.00 0.00 1012.2
20260904061002 68 295 0.0 2.0 0.00 0.00 0.00 1012.2
20260904060502 68 314 1.0 2.0 0.00 0.00 0.00 1011.9
20260904060002 68 275 0.0 2.0 0.00 0.00 0.00 1011.9
20260904055502 68 303 1.0 2.0 0.00 0.00 0.00 1011.9
20260904055002 68 275 1.0 3.0 0.00 0.00 0.00 1012.2
20260904054502 68 280 1.0 3.0 0.00 0.00 0.00 1011.9
20260904054002 68 291 1.0 2.0 0.00 0.00 0.00 1012.2
20260904053525 68 291 1.0 3.0 0.00 0.00 0.00 1012.2
20260904053001 68 280 1.0 3.0 0.00 0.00 0.00 1012.2
20260904052523 68 253 1.0 3.0 0.00 0.00 0.00 1012.9
20260904052003 68 283 2.0 4.0 0.00 0.00 0.00 1012.6
20260904051501 68 277 2.0 5.0 0.00 0.00 0.00 1012.2
20260904051002 68 279 3.0 5.0 0.00 0.00 0.00 1012.9
20260904050502 68 305 2.0 5.0 0.00 0.00 0.00 1012.9
20260904050024 68 280 3.0 5.0 0.00 0.00 0.00 1012.9
20260904045502 68 285 2.0 5.0 0.00 0.00 0.00 1012.6
20260904045002 68 278 2.0 5.0 0.00 0.00 0.00 1012.2
20260904044502 68 284 3.0 5.0 0.00 0.00 0.00 1012.6
20260904044002 68 285 3.0 4.0 0.00 0.00 0.00 1011.9
20260904043502 69 285 2.0 4.0 0.00 0.00 0.00 1012.2
20260904043002 69 249 2.0 4.0 0.00 0.00 0.00 1011.9
20260904042502 69 268 2.0 3.0 0.00 0.00 0.00 1012.2
20260904042002 69 283 1.0 4.0 0.00 0.00 0.00 1012.6
20260904041501 69 254 2.0 5.0 0.00 0.00 0.00 1012.6
20260904041002 69 246 2.0 5.0 0.00 0.00 0.00 1012.6
20260904040503 69 287 3.0 5.0 0.00 0.00 0.00 1012.6
20260904040023 69 293 3.0 6.0 0.00 0.00 0.00 1011.9
20260904035502 69 283 4.0 6.0 0.00 0.00 0.00 1012.2
20260904035002 69 277 4.0 6.0 0.00 0.00 0.00 1011.9
20260904034502 69 290 3.0 5.0 0.00 0.00 0.00 1011.9
20260904034002 69 264 3.0 5.0 0.00 0.00 0.00 1011.5
20260904033501 69 278 3.0 7.0 0.00 0.00 0.00 1011.5
20260904033002 69 268 4.0 7.0 0.00 0.00 0.00 1011.5
20260904032503 69 243 3.0 6.0 0.00 0.00 0.00 1011.5
20260904032023 69 266 4.0 7.0 0.00 0.00 0.00 1011.2
20260904031502 70 240 4.0 7.0 0.00 0.00 0.00 1011.9
20260904031023 70 255 3.0 6.0 0.00 0.00 0.00 1011.9
20260904030523 70 244 2.0 6.0 0.00 0.00 0.00 1011.5
20260904030002 70 239 3.0 5.0 0.00 0.00 0.00 1010.5
20260904025524 71 211 2.0 5.0 0.00 0.00 0.00 1010.9
20260904025024 71 215 2.0 5.0 0.00 0.00 0.00 1010.9
20260904024503 71 200 4.0 6.0 0.00 0.00 0.00 1010.9
20260904024025 71 226 5.0 7.0 0.00 0.00 0.00 1010.9
20260904023503 71 225 4.0 7.0 0.00 0.00 0.00 1011.2
20260904023003 71 201 4.0 8.0 0.00 0.00 0.00 1011.2
20260904022501 72 207 4.0 8.0 0.00 0.00 0.00 1011.2
20260904022003 72 177 4.0 7.0 0.00 0.00 0.00 1010.2
20260904021502 72 198 3.0 10.0 0.00 0.00 0.00 1010.9
20260904021002 72 225 6.0 10.0 0.00 0.00 0.00 1010.2
20260904020503 73 204 4.0 8.0 0.00 0.00 0.00 1010.2
20260904020003 74 197 4.0 9.0 0.00 0.00 0.00 1010.5
20260904015524 74 218 3.0 9.0 0.00 0.00 0.00 1010.9
20260904015023 74 213 5.0 9.0 0.00 0.00 0.00 1010.9
20260904014502 75 197 3.0 10.0 0.00 0.00 0.00 1010.5
20260904014002 76 180 5.0 10.0 0.00 0.00 0.00 1011.5
20260904013503 75 175 4.0 9.0 0.00 0.00 0.00 1011.2
20260904013002 75 209 5.0 10.0 0.00 0.00 0.00 1011.5
20260904012502 76 173 7.0 10.0 0.00 0.00 0.00 1011.5
20260904012002 76 169 6.0 10.0 0.00 0.00 0.00 1011.5
20260904011502 76 203 4.0 10.0 0.00 0.00 0.00 1011.9
20260904011002 76 227 6.0 10.0 0.00 0.00 0.00 1011.5
20260904010503 77 211 4.0 12.0 0.00 0.00 0.00 1011.5
20260904010003 77 179 5.0 12.0 0.00 0.00 0.00 1011.2
20260904005501 77 189 5.0 10.0 0.00 0.00 0.00 1011.5
20260904005003 77 215 6.0 10.0 0.00 0.00 0.00 1011.5
20260904004502 77 218 5.0 11.0 0.00 0.00 0.00 1011.2
20260904004002 77 217 7.0 11.0 0.00 0.00 0.00 1011.2
20260904003501 77 182 5.0 12.0 0.00 0.00 0.00 1011.5
20260904003024 77 216 6.0 12.0 0.00 0.00 0.00 1011.9
20260904002502 78 214 5.0 11.0 0.00 0.00 0.00 1011.5
20260904002003 78 186 6.0 11.0 0.00 0.00 0.00 1011.5
20260904001502 79 190 5.0 11.0 0.00 0.00 0.00 1011.5
20260904001001 79 182 6.0 11.0 0.00 0.00 0.00 1011.5
20260904000503 79 191 6.0 9.0 0.00 0.00 0.00 1011.5
20260904000002 79 225 5.0 11.0 0.00 0.00 0.00 1011.5
20260903235502 79 187 6.0 11.0 0.00 0.00 0.00 1011.5
20260903235024 78 214 6.0 10.0 0.00 0.00 0.00 1011.5
20260903234503 79 216 6.0 12.0 0.00 0.00 0.00 1011.5
20260903234003 79 190 4.0 12.0 0.00 0.00 0.00 1011.2
20260903233501 79 211 4.0 10.0 0.00 0.00 0.00 1011.2
20260903233002 79 211 5.0 11.0 0.00 0.00 0.00 1011.5
20260903232502 79 197 6.0 11.0 0.00 0.00 0.00 1011.5
20260903232024 78 209 6.0 12.0 0.00 0.00 0.00 1011.9
20260903231502 79 195 6.0 12.0 0.00 0.00 0.00 1011.5
20260903231002 79 223 6.0 10.0 0.00 0.00 0.00 1011.5
20260903230502 79 212 4.0 11.0 0.00 0.00 0.00 1011.2
20260903230003 78 213 6.0 12.0 0.00 0.00 0.00 1011.2
20260903225504 79 233 6.0 13.0 0.00 0.00 0.00 1011.2
20260903225002 79 208 5.0 14.0 0.00 0.00 0.00 1011.5
20260903224503 79 211 6.0 14.0 0.00 0.00 0.00 1011.2
20260903224003 79 233 5.0 12.0 0.00 0.00 0.00 1011.5
20260903223502 79 221 7.0 11.0 0.00 0.00 0.00 1011.9
20260903223002 79 215 6.0 11.0 0.00 0.00 0.00 1011.5
20260903222502 79 205 5.0 10.0 0.00 0.00 0.00 1011.9
20260903222002 79 207 6.0 13.0 0.00 0.00 0.00 1012.2
20260903221523 78 208 6.0 14.0 0.00 0.00 0.00 1012.6
20260903221002 78 269 9.0 15.0 0.00 0.00 0.00 1011.9
20260903220501 78 220 6.0 16.0 0.00 0.00 0.00 1011.9
20260903220002 78 223 8.0 16.0 0.00 0.00 0.00 1011.5
20260903215502 79 223 6.0 16.0 0.00 0.00 0.00 1011.9
20260903215003 79 227 9.0 16.0 0.00 0.00 0.00 1011.5
20260903214502 80 210 7.0 14.0 0.00 0.00 0.00 1012.2
20260903214024 79 180 7.0 14.0 0.00 0.00 0.00 1012.6
20260903213502 79 237 7.0 14.0 0.00 0.00 0.00 1012.6
20260903213002 78 230 6.0 14.0 0.00 0.00 0.00 1012.2
20260903212502 79 223 7.0 13.0 0.00 0.00 0.00 1012.2
20260903212002 80 223 7.0 13.0 0.00 0.00 0.00 1012.2
20260903211502 79 176 5.0 12.0 0.00 0.00 0.00 1011.9
20260903211002 79 208 6.0 12.0 0.00 0.00 0.00 1012.2
20260903210502 79 226 5.0 12.0 0.00 0.00 0.00 1012.2
20260903210002 79 230 6.0 13.0 0.00 0.00 0.00 1012.9
20260903205502 79 207 5.0 14.0 0.00 0.00 0.00 1012.2
20260903205001 78 210 8.0 14.0 0.00 0.00 0.00 1013.2
20260903204502 78 230 8.0 12.0 0.00 0.00 0.00 1012.6
20260903204023 78 230 6.0 12.0 0.00 0.00 0.00 1012.9
20260903203502 78 208 6.0 11.0 0.00 0.00 0.00 1012.9
20260903203003 79 212 5.0 10.0 0.00 0.00 0.00 1012.6
20260903202502 79 195 6.0 12.0 0.00 0.00 0.00 1012.9
20260903202001 79 203 5.0 12.0 0.00 0.00 0.00 1013.2
20260903201503 79 178 6.0 11.0 0.00 0.00 0.00 1012.6
20260903201003 78 178 4.0 12.0 0.00 0.00 0.00 1012.9
20260903200503 77 250 5.0 15.0 0.00 0.00 0.00 1012.9
20260903200002 79 209 8.0 15.0 0.00 0.00 0.00 1013.2
20260903195503 79 215 4.0 10.0 0.00 0.00 0.00 1012.9
20260903195003 78 179 4.0 10.0 0.00 0.00 0.00 1012.6
20260903194503 78 210 6.0 10.0 0.00 0.00 0.00 1012.9
20260903194002 79 176 5.0 12.0 0.00 0.00 0.00 1013.2
20260903193504 78 183 7.0 12.0 0.00 0.00 0.00 1013.2
20260903193002 78 203 5.0 12.0 0.00 0.00 0.00 1013.2
20260903192502 78 203 5.0 12.0 0.00 0.00 0.00 1012.9
20260903192003 78 215 7.0 14.0 0.00 0.00 0.00 1013.6
20260903191502 78 185 6.0 14.0 0.00 0.00 0.00 1013.6
20260903191002 78 195 6.0 10.0 0.00 0.00 0.00 1013.2
20260903190502 78 181 5.0 15.0 0.00 0.00 0.00 1013.2
20260903190023 78 184 9.0 15.0 0.00 0.00 0.00 1013.6
20260903185502 78 208 6.0 12.0 0.00 0.00 0.00 1013.2
20260903185002 77 177 7.0 12.0 0.00 0.00 0.00 1013.6
20260903184502 76 168 5.0 9.0 0.00 0.00 0.00 1013.9
20260903184002 75 220 4.0 8.0 0.00 0.00 0.00 1013.6
20260903183502 75 289 3.0 9.0 0.00 0.00 0.00 1013.6
20260903183004 75 253 5.0 9.0 0.00 0.00 0.00 1013.9
20260903182502 76 211 3.0 9.0 0.00 0.00 0.00 1013.6
20260903182002 75 207 5.0 11.0 0.00 0.00 0.00 1013.6
20260903181502 75 207 6.0 11.0 0.00 0.00 0.00 1013.9
20260903181002 75 219 3.0 8.0 0.00 0.00 0.00 1013.6
20260903180502 77 115 4.0 7.0 0.00 0.00 0.00 1013.9
20260903180002 76 184 2.0 8.0 0.00 0.00 0.00 1013.6
20260903175503 76 161 2.0 8.0 0.00 0.00 0.00 1013.6
20260903175002 75 200 3.0 8.0 0.00 0.00 0.00 1013.6
20260903174502 75 178 3.0 10.0 0.00 0.00 0.00 1013.2
20260903174003 74 181 3.0 10.0 0.00 0.00 0.00 1013.2
20260903173502 73 218 5.0 9.0 0.00 0.00 0.00 1013.6
20260903173024 74 232 3.0 9.0 0.00 0.00 0.00 1013.6
20260903172503 75 83 1.0 7.0 0.00 0.00 0.00 1013.6
20260903172002 75 115 3.0 9.0 0.00 0.00 0.00 1013.6
20260903171502 74 133 4.0 9.0 0.00 0.00 0.00 1013.6
20260903171003 73 258 1.0 7.0 0.00 0.00 0.00 1013.6
20260903170504 73 176 4.0 7.0 0.00 0.00 0.00 1013.6
20260903170003 72 242 2.0 6.0 0.00 0.00 0.00 1013.6
20260903165502 73 225 2.0 9.0 0.00 0.00 0.00 1013.6
20260903165004 73 127 3.0 9.0 0.00 0.00 0.00 1013.9
20260903164503 73 194 4.0 7.0 0.00 0.00 0.00 1013.9
20260903164002 73 192 3.0 6.0 0.00 0.00 0.00 1013.6
20260903163523 72 200 3.0 6.0 0.00 0.00 0.00 1013.6
20260903163002 71 163 2.0 6.0 0.00 0.00 0.00 1014.3
20260903162502 72 235 3.0 6.0 0.00 0.00 0.00 1013.9
20260903162003 71 183 3.0 6.0 0.00 0.00 0.00 1013.6
20260903161503 71 231 2.0 7.0 0.00 0.00 0.00 1013.6
20260903161024 71 214 3.0 7.0 0.00 0.00 0.00 1013.6
20260903160503 71 215 3.0 6.0 0.00 0.00 0.00 1013.2
20260903160002 71 201 2.0 4.0 0.00 0.00 0.00 1013.6
20260903155501 70 190 2.0 5.0 0.00 0.00 0.00 1013.9
20260903155023 70 183 2.0 5.0 0.00 0.00 0.00 1014.3
20260903154502 70 211 2.0 5.0 0.00 0.00 0.00 1013.6
20260903154024 70 166 2.0 5.0 0.00 0.00 0.00 1013.6
20260903153502 70 80 2.0 4.0 0.00 0.00 0.00 1013.6
20260903153023 69 77 3.0 5.0 0.00 0.00 0.00 1013.9
20260903152503 68 104 2.0 5.0 0.00 0.00 0.00 1013.9
20260903152002 68 134 2.0 4.0 0.00 0.00 0.00 1013.6
20260903151502 68 81 3.0 5.0 0.00 0.00 0.00 1013.6
20260903151002 67 84 3.0 5.0 0.00 0.00 0.00 1013.6
20260903150502 67 97 2.0 6.0 0.00 0.00 0.00 1013.9
20260903150001 66 92 3.0 6.0 0.00 0.00 0.00 1014.3
20260903145502 66 131 2.0 6.0 0.00 0.00 0.00 1013.6
20260903145003 66 83 3.0 6.0 0.00 0.00 0.00 1013.6
20260903144524 66 95 3.0 5.0 0.00 0.00 0.00 1013.6
20260903144002 66 135 2.0 5.0 0.00 0.00 0.00 1013.6
20260903143502 65 72 3.0 5.0 0.00 0.00 0.00 1013.2
20260903143024 65 80 1.0 4.0 0.00 0.00 0.00 1013.2
20260903142524 64 91 2.0 4.0 0.00 0.00 0.00 1013.2
20260903142002 64 121 1.0 5.0 0.00 0.00 0.00 1013.6
20260903141502 64 72 3.0 5.0 0.00 0.00 0.00 1013.6
20260903141003 64 69 1.0 3.0 0.00 0.00 0.00 1013.6
20260903140502 64 95 1.0 3.0 0.00 0.00 0.00 1013.6
20260903140002 64 131 2.0 3.0 0.00 0.00 0.00 1013.6
20260903135503 64 88 1.0 3.0 0.00 0.00 0.00 1013.2
20260903135024 64 66 1.0 2.0 0.00 0.00 0.00 1012.9
20260903134523 64 90 1.0 2.0 0.00 0.00 0.00 1012.9
20260903134003 64 90 1.0 4.0 0.00 0.00 0.00 1013.2
20260903133502 63 69 2.0 4.0 0.00 0.00 0.00 1012.9
20260903133023 63 53 2.0 4.0 0.00 0.00 0.00 1012.9
20260903132502 63 51 2.0 4.0 0.00 0.00 0.00 1012.9
20260903132024 63 65 2.0 4.0 0.00 0.00 0.00 1012.9
20260903131502 63 62 2.0 4.0 0.00 0.00 0.00 1013.2
20260903131002 64 76 2.0 4.0 0.00 0.00 0.00 1013.6
20260903130501 64 65 1.0 3.0 0.00 0.00 0.00 1013.6
20260903130002 64 66 2.0 5.0 0.00 0.00 0.00 1013.2
20260903125502 63 62 2.0 5.0 0.00 0.00 0.00 1012.9
20260903125003 64 54 1.0 4.0 0.00 0.00 0.00 1013.2
20260903124505 63 71 2.0 5.0 0.00 0.00 0.00 1013.9
20260903124003 63 72 3.0 5.0 0.00 0.00 0.00 1013.6
20260903123502 64 65 3.0 5.0 0.00 0.00 0.00 1013.2
20260903123024 64 70 2.0 5.0 0.00 0.00 0.00 1013.2
20260903122502 64 66 2.0 5.0 0.00 0.00 0.00 1013.2
20260903122002 64 77 3.0 5.0 0.00 0.00 0.00 1012.9
20260903121503 64 70 2.0 3.0 0.00 0.00 0.00 1013.2
20260903121003 64 72 2.0 3.0 0.00 0.00 0.00 1013.6
20260903120502 64 82 1.0 3.0 0.00 0.00 0.00 1013.6
20260903120002 64 88 1.0 3.0 0.00 0.00 0.00 1013.6
20260903115502 64 73 1.0 3.0 0.00 0.00 0.00 1013.6
20260903115004 64 99 1.0 3.0 0.00 0.00 0.00 1013.6
20260903114503 64 99 1.0 4.0 0.00 0.00 0.00 1013.6
20260903114002 64 73 2.0 4.0 0.00 0.00 0.00 1013.6
20260903113503 64 74 2.0 3.0 0.00 0.00 0.00 1013.6
20260903113002 64 85 2.0 3.0 0.00 0.00 0.00 1013.9
20260903112503 64 96 2.0 3.0 0.00 0.00 0.00 1013.9
20260903112002 64 97 2.0 3.0 0.00 0.00 0.00 1013.9
20260903111502 65 91 2.0 3.0 0.00 0.00 0.00 1013.6
20260903111002 65 90 1.0 3.0 0.00 0.00 0.00 1013.9
20260903110502 65 83 2.0 3.0 0.00 0.00 0.00 1013.9
20260903110002 65 83 2.0 3.0 0.00 0.00 0.00 1013.6
20260903105525 65 67 2.0 3.0 0.00 0.00 0.00 1013.6
20260903105002 64 72 2.0 3.0 0.00 0.00 0.00 1013.9
20260903104524 65 117 2.0 3.0 0.00 0.00 0.00 1013.9
20260903104002 65 157 0.0 2.0 0.00 0.00 0.00 1013.6
20260903103503 65 122 0.0 2.0 0.00 0.00 0.00 1013.6
20260903103003 65 98 1.0 3.0 0.00 0.00 0.00 1013.9
20260903102524 65 87 2.0 3.0 0.00 0.00 0.00 1013.9
20260903102003 65 83 2.0 3.0 0.00 0.00 0.00 1013.9
20260903101502 65 77 2.0 3.0 0.00 0.00 0.00 1013.9
20260903101003 65 79 2.0 3.0 0.00 0.00 0.00 1013.9
20260903100502 65 90 2.0 3.0 0.00 0.00 0.00 1013.9
20260903100002 65 80 2.0 3.0 0.00 0.00 0.00 1014.3
20260903095502 65 83 1.0 3.0 0.00 0.00 0.00 1014.3
20260903095002 65 91 2.0 3.0 0.00 0.00 0.00 1014.3
20260903094503 65 98 2.0 3.0 0.00 0.00 0.00 1013.6
20260903094023 65 89 2.0 3.0 0.00 0.00 0.00 1014.3
20260903093524 65 86 2.0 3.0 0.00 0.00 0.00 1013.9
20260903093002 65 83 2.0 3.0 0.00 0.00 0.00 1013.6
20260903092503 65 84 2.0 3.0 0.00 0.00 0.00 1013.9
20260903092003 65 94 2.0 3.0 0.00 0.00 0.00 1013.6
20260903091524 65 92 1.0 3.0 0.00 0.00 0.00 1013.9
20260903091024 65 108 1.0 3.0 0.00 0.00 0.00 1014.6
20260903090503 65 92 2.0 3.0 0.00 0.00 0.00 1014.6
20260903090002 66 87 2.0 3.0 0.00 0.00 0.00 1014.3
20260903085502 66 90 2.0 2.0 0.00 0.00 0.00 1014.3
20260903085002 66 85 2.0 2.0 0.00 0.00 0.00 1014.6
20260903084502 66 98 1.0 2.0 0.00 0.00 0.00 1014.6
20260903084003 66 86 1.0 2.0 0.00 0.00 0.00 1014.6
20260903083503 66 90 1.0 2.0 0.00 0.00 0.00 1015.3
20260903083002 66 105 1.0 2.0 0.00 0.00 0.00 1015.3
20260903082503 66 81 2.0 2.0 0.00 0.00 0.00 1014.9
20260903082002 66 89 1.0 2.0 0.00 0.00 0.00 1014.9
20260903081503 66 90 0.0 0.0 0.00 0.00 0.00 1014.9
20260903081002 66 90 0.0 1.0 0.00 0.00 0.00 1014.9
20260903080502 66 113 0.0 1.0 0.00 0.00 0.00 1014.9
20260903080003 66 113 0.0 1.0 0.00 0.00 0.00 1014.6
20260903075503 66 90 0.0 1.0 0.00 0.00 0.00 1014.9
20260903075002 66 90 0.0 1.0 0.00 0.00 0.00 1014.6
20260903074502 67 90 0.0 0.0 0.00 0.00 0.00 1014.6
20260903074002 67 90 0.0 1.0 0.00 0.00 0.00 1015.3